Current weather by "City, St" or "zip code"  
 

Current Conditions: COVINGTON MUNI, TN

Fair


72.0 F

Last Updated on Oct 21 2021, 12:55 pm CDT
Humidity: 38%
Wind Speed: NW 11.5 mph
Barometer 30.08 in
Dewpoint: 44.6 F
Visibility: 10.00 mi
Precip: --
Heat Index: NA
Wind Chill: NA
Current conditions at:

COVINGTON MUNI, TN (KM04)

Lat: 35.58 Lon: 89.59

Local Radar Image active severe weather and emergency alerts image image weather storm and storm spotter reports image weather observation monitoring service image
Local
Radar
Active
Alerts
Storm Reports Obs
Monitoring

Sign-up For Email & Text Message Weather Alert Notification Services



Advertise Here

Observation History for COVINGTON MUNI, TN


Time Wind
(mph)
Vis
(mi)
Weather Precip (in) Temperature (F) Relative
Humidity
Wind
Chill
(F)
Heat
Index
(F)
Pressure
Air Dwpt altimeter
(in)
sea level
(mb)
Rmks
12:55 pm CDT NW 11.5 10.00 Fair -- 72.0 44.6 38% NA NA 30.08 M
11:55 am CDT NW 6.9 G 12.7 10.00 Overcast -- 70.0 51.8 53% NA NA 30.10 M
10:55 am CDT NW 8.1 10.00 Mostly Cloudy -- 68.0 53.6 60% NA NA 30.11 M
9:55 am CDT N 15.0 10.00 Mostly Cloudy -- 70.0 59.0 69% NA NA 30.11 M
8:30 am CDT NW 12.7 10.00 A Few Clouds -- 68.0 64.4 88% NA NA 30.09 M
7:55 am CDT NW 4.6 8.00 Mostly Cloudy -- 68.0 68.0 100% NA NA 30.08 M
6:55 am CDT W 3.5 5.00 Fog/Mist -- 66.0 66.2 100% NA NA 30.07 M
5:55 am CDT S 4.6 5.00 Fog/Mist -- 66.0 66.2 100% NA NA 30.06 M
4:55 am CDT SW 4.6 3.00 Fog/Mist -- 64.0 64.4 100% NA NA 30.05 M
3:55 am CDT SW 3.5 8.00 Overcast -- 66.0 66.2 100% NA NA 30.05 M
2:55 am CDT SW 8.1 4.00 Fog/Mist -- 66.0 66.2 100% NA NA 30.05 M
1:55 am CDT SW 6.9 8.00 Fair -- 64.0 64.4 100% NA NA 30.06 M
12:20 am CDT S 6.9 10.00 A Few Clouds -- 64.0 64.4 100% NA NA 30.08 M
11:55 pm CDT S 5.8 10.00 Fair -- 64.0 64.4 100% NA NA 30.09 M
10:55 pm CDT SW 4.6 10.00 Mostly Cloudy -- 64.0 64.4 100% NA NA 30.10 M
9:55 pm CDT S 4.6 10.00 Mostly Cloudy -- 66.0 62.6 88% NA NA 30.10 M
8:55 pm CDT S 5.8 10.00 Fair -- 68.0 62.6 83% NA NA 30.07 M
7:55 pm CDT S 5.8 10.00 Fair -- 68.0 60.8 78% NA NA 30.07 M
6:55 pm CDT S 3.5 10.00 Fair -- 70.0 60.8 73% NA NA 30.07 M
5:55 pm CDT S 4.6 10.00 Fair -- 73.0 59.0 61% NA NA 30.07 M
4:20 pm CDT S 9.2 10.00 Fair -- 79.0 55.4 45% NA NA 30.09 M
3:55 pm CDT SW 6.9 10.00 Fair -- 79.0 55.4 45% NA NA 30.10 M
2:55 pm CDT W 5.8 G 15.0 10.00 Fair -- 79.0 55.4 45% NA NA 30.11 M
1:55 pm CDT SW 8.1 G 15.0 10.00 Fair -- 77.0 55.4 47% NA NA 30.13 M

Regional Weather Observation


COVINGTON MUNI, TN (KM04)

Fair
72.0 F

Millington, Millington Municipal Airport, TN (KNQA)

Fair
72.0 F

Dyersburg, Dyersburg Municipal Airport, TN (KDYR)

Fair
72.0 F

Memphis International Airport, TN (KMEM)

Mostly Cloudy
74.0 F

Somerville - Fayette County Airport, TN (KFYE)

Overcast
70.0 F

Kennett - Kennett Memorial Airport, MO (KTKX)

Fair
72.0 F

Advertise Here


Advertise Here